Location: Plainartige
(45.6866°N, 1.7993°E)
Time: 01:54:18
(UTC+00:00)

RS-15 - Pass Details

Date: 30 June 2022
Orbit: 1881 x 2163 km, 64.8° (Epoch: 10 August)

Event Time Altitude Azimuth Distance (km) Brightness Sun altitude
Rises 02:33:03 0° 316° (NW) 5,691 10.6 -12.5°
Reaches altitude 10° 02:38:46 10° 296° (WNW) 4,658 9.9 -11.9°
Maximum altitude 02:44:31 15° 267° (W) 4,215 9.4 -11.3°
Drops below altitude 10° 02:50:11 10° 238° (WSW) 4,563 9.4 -10.6°
Enters shadow 02:50:16 10° 237° (WSW) 4,573 9.4 -10.6°
